Temp
13 15 16 17 17 18 19 19 17 14 14 15 16 17 17 18 18 18 17 18 17 17 17 16 16 15 15 14 14 14 14 13 13 13 13 13 13 12
13 13 15 17 16 16 17 18 18 18 16 17 18 18 18 18 18 18 18 18 17 17 16 16 16 16 15 15 14 14 14 13 13 13 13 13 13 13
13 12 14 16 15 15 16 16 17 16 16 17 17 18 16 17 16 17 17 17 16 16 15 15 16 16 16 15 15 15 14 14 14 13 13 13 13 13
7 11 8 9 13 14 15 14 14 15 16 15 15 16 17 16 16 16 16 16 16 16 16 17 17 17 17 16 15 15 14 14 14 13 13 13 13 13
2 3 2 5 3 6 9 12 14 14 14 15 15 15 16 16 15 15 15 15 15 16 15 16 16 17 17 16 16 16 15 14 14 13 13 13 13 13
1 1 1 0 1 1 3 4 5 9 10 11 14 14 13 13 13 13 13 14 14 14 15 15 16 16 16 15 16 15 15 15 14 13 13 13 13 13
-1 -1 -0 -0 0 1 1 1 2 3 6 6 6 7 4 4 3 3 6 8 12 12 13 13 13 13 14 14 13 14 14 14 14 13 12 12 12 12
-3 -3 -2 -0 -1 -0 0 -1 -1 -1 -0 2 1 1 0 -0 1 0 2 5 8 9 8 10 11 12 12 12 13 13 13 13 13 12 12 12 12 12
-4 -4 -4 -3 -2 -2 -1 -1 0 -1 -1 -2 -2 -1 -1 -1 -2 -1 -1 0 2 4 3 6 9 9 10 10 10 11 10 10 11 11 11 11 11 11
-5 -5 -5 -5 -5 -4 -3 -4 -4 -4 -4 -3 -4 -3 -4 -4 -4 -3 -2 -1 1 0 2 3 5 6 7 7 7 7 8 9 9 9 9 9 10 10
-7 -6 -6 -6 -6 -5 -4 -5 -5 -5 -4 -4 -5 -4 -3 -4 -5 -3 -4 -2 -0 -0 -1 -2 1 2 5 5 5 5 5 5 4 4 4 6 6 7
-8 -8 -7 -7 -7 -7 -7 -7 -7 -7 -6 -4 -4 -4 -4 -4 -4 -5 -5 -5 -4 -2 -4 -3 -1 -0 1 2 3 3 3 3 2 1 1 2 3 4
-10 -9 -9 -8 -8 -8 -9 -8 -8 -7 -7 -6 -6 -6 -5 -5 -4 -5 -5 -5 -5 -4 -4 -5 -4 -2 -1 -0 0 1 1 1 0 0 -0 0 1 2
-12 -11 -11 -10 -10 -10 -10 -10 -8 -7 -8 -8 -8 -9 -8 -7 -6 -5 -5 -5 -5 -6 -6 -6 -6 -5 -5 -3 -2 -1 -1 -1 -2 -2 -1 -1 -1 -1
-12 -12 -11 -10 -10 -10 -12 -11 -10 -10 -11 -11 -11 -10 -9 -8 -6 -5 -5 -5 -5 -5 -6 -6 -6 -7 -6 -5 -4 -4 -5 -3 -3 -3 -3 -2 -2 -2
-12 -12 -12 -12 -12 -12 -12 -12 -13 -13 -13 -13 -13 -11 -10 -8 -8 -7 -7 -6 -6 -5 -5 -6 -6 -6 -7 -6 -6 -6 -5 -5 -4 -4 -4 -4 -4 -4
-14 -14 -14 -15 -15 -15 -15 -14 -14 -14 -14 -14 -14 -13 -12 -11 -10 -9 -9 -8 -8 -7 -7 -5 -5 -6 -6 -6 -6 -6 -6 -6 -5 -5 -5 -5 -5 -5
-14 -15 -15 -16 -16 -17 -17 -17 -17 -16 -16 -15 -15 -14 -14 -13 -13 -11 -10 -10 -10 -9 -8 -7 -7 -6 -6 -7 -6 -7 -6 -6 -6 -5 -5 -6 -6 -6
-14 -14 -15 -16 -16 -17 -17 -18 -18 -18 -17 -17 -17 -17 -16 -15 -14 -13 -12 -12 -11 -10 -9 -8 -8 -8 -7 -6 -7 -7 -7 -6 -6 -6 -6 -6 -6 -6
-13 -14 -15 -15 -16 -17 -17 -17 -18 -18 -18 -18 -18 -17 -17 -17 -16 -14 -13 -13 -12 -11 -10 -9 -9 -9 -8 -8 -8 -8 -7 -6 -6 -6 -7 -6 -6 -6
-13 -13 -14 -15 -15 -16 -17 -17 -17 -18 -18 -18 -18 -18 -18 -18 -16 -16 -15 -13 -13 -12 -11 -10 -10 -9 -8 -8 -9 -9 -9 -8 -7 -7 -7 -7 -7 -7
-13 -13 -14 -14 -15 -15 -16 -17 -17 -18 -18 -18 -19 -19 -18 -18 -18 -17 -16 -15 -14 -13 -12 -11 -10 -9 -8 -8 -8 -10 -10 -9 -8 -7 -7 -7 -7 -6
-13 -13 -13 -14 -15 -15 -16 -17 -17 -18 -19 -19 -19 -19 -19 -18 -18 -18 -17 -16 -15 -14 -13 -12 -12 -10 -10 -9 -9 -10 -10 -10 -10 -9 -8 -8 -7 -7
Height
689 689 692 695 698 702 707 714 723 732 733 731 735 736 739 742 745 749 751 754 758 761 763 766 769 772 776 780 783 785 787 790 793 796 798 801 804 807
686 690 689 689 692 696 701 707 713 718 724 724 727 732 735 737 738 741 744 746 748 751 754 758 761 764 766 769 773 777 780 782 784 787 789 792 795 798
677 682 685 688 687 690 696 702 708 713 717 718 722 725 730 732 734 735 738 740 740 742 744 748 752 754 757 759 763 766 769 771 773 776 780 782 785 788
667 674 680 681 684 688 691 695 700 706 711 713 717 720 723 726 729 731 732 734 735 736 738 739 742 745 747 749 752 756 759 762 765 767 769 772 774 774
674 670 687 686 690 692 690 689 693 701 705 710 712 715 718 721 721 724 725 724 727 731 733 733 734 736 738 740 742 745 748 751 755 757 760 762 764 765
678 680 686 691 690 701 693 693 698 696 700 705 709 713 716 716 717 719 720 718 719 723 726 725 727 729 730 732 733 736 738 741 744 747 749 752 754 755
682 687 692 704 707 708 696 698 701 704 697 702 712 713 719 713 718 720 716 716 716 718 717 719 721 722 722 723 724 725 728 730 734 736 738 740 742 744
699 707 707 704 711 711 711 712 708 707 701 707 713 717 724 723 725 723 713 718 716 714 713 714 716 717 718 717 716 717 720 722 724 726 729 730 731 733
715 707 705 709 715 717 716 712 715 718 716 726 717 718 721 728 733 719 718 719 721 715 715 713 713 715 713 713 713 712 711 712 715 718 718 719 720 720
730 720 720 718 727 726 727 728 720 728 731 730 731 725 730 737 729 725 722 716 715 720 715 715 712 710 710 709 709 707 707 707 708 710 711 710 711 711
736 734 734 735 739 735 735 736 733 734 737 738 738 731 731 733 728 726 723 717 718 719 718 717 715 711 707 705 704 704 703 703 704 703 704 703 701 701
749 750 750 747 744 744 743 743 740 744 741 740 735 736 735 734 729 729 731 728 726 723 722 723 718 715 707 703 705 704 704 701 701 699 699 698 698 694
764 760 757 753 749 751 751 748 746 745 743 743 743 741 739 734 731 733 734 733 730 728 727 725 719 718 716 710 705 703 704 699 698 694 694 692 693 688
768 772 767 762 757 759 756 755 751 749 747 747 745 742 740 739 740 738 734 732 729 728 727 725 724 723 720 714 711 704 701 698 697 691 689 689 688 684
777 774 768 765 763 763 762 756 752 750 749 748 749 747 746 747 744 737 734 731 728 729 728 726 722 720 717 715 712 704 701 696 696 692 688 686 683 680
781 777 773 769 763 763 759 759 759 757 758 758 757 754 750 747 744 739 734 729 725 725 725 723 717 716 715 711 709 704 703 700 696 692 690 688 685 684
789 783 774 768 769 772 770 767 765 762 761 762 760 757 753 749 744 741 738 734 728 726 724 721 718 715 712 710 707 705 701 699 699 694 692 690 688 687
782 777 776 779 779 779 777 776 773 771 770 767 763 761 756 750 745 740 737 735 731 728 725 721 716 712 710 707 706 704 702 700 698 695 693 691 688 688
792 792 789 789 788 785 782 779 776 775 774 773 770 765 758 754 748 743 740 737 734 730 725 722 717 713 710 709 706 705 703 700 696 695 693 693 694 689
790 790 793 793 790 788 785 782 780 779 777 772 767 763 759 754 749 746 743 739 734 730 726 722 717 716 714 710 705 704 702 703 698 697 694 689 690 694
794 794 793 790 788 786 784 782 781 776 772 768 762 757 754 750 747 742 741 741 737 731 725 720 718 715 712 708 707 704 700 700 701 698 694 695 694 694
801 799 797 793 789 786 782 780 778 774 770 767 762 756 753 749 746 745 745 742 736 732 726 721 716 714 709 705 706 704 702 702 697 699 696 695 696 697
799 798 796 794 790 788 787 785 781 777 774 770 762 757 755 751 749 746 743 740 736 730 724 719 716 711 707 706 704 703 704 703 701 699 698 697 693 697
Wind_Speed
29 28 33 33 35 37 33 29 11 4 6 8 13 18 28 31 33 32 32 31 30 29 28 28 29 30 33 36 38 40 40 41 42 43 42 40 41 41
32 26 30 30 34 35 34 35 29 18 6 20 23 21 22 26 29 30 29 28 30 30 30 29 28 29 31 34 37 40 42 42 43 44 45 44 44 44
12 10 22 32 27 32 33 30 28 22 11 14 15 17 23 21 21 20 19 22 25 27 29 30 28 30 32 35 36 38 41 43 43 44 47 47 47 47
13 4 7 12 7 14 24 27 26 27 19 11 16 20 23 24 21 18 19 24 25 23 22 21 22 24 26 32 35 38 40 41 42 44 45 48 51 53
32 32 25 15 23 11 5 9 15 16 18 18 14 21 26 22 23 25 24 21 25 30 28 29 27 25 27 29 34 35 36 39 41 41 44 46 48 54
44 43 41 40 29 19 18 13 7 5 4 4 15 15 17 19 15 12 16 20 21 25 25 24 25 29 33 33 33 35 35 36 37 37 37 41 43 45
46 44 41 37 34 35 32 26 19 12 9 14 9 11 11 9 9 11 4 10 7 10 17 22 25 27 27 32 32 35 35 35 35 36 35 37 39 42
36 36 39 38 35 34 32 32 36 29 24 10 9 10 13 14 15 10 7 7 3 5 13 15 15 18 26 29 33 29 29 31 31 31 32 35 38 40
35 39 42 41 34 32 34 34 32 30 31 20 19 19 15 18 13 11 9 5 6 19 21 13 17 21 18 18 21 23 21 21 25 29 30 33 36 38
38 39 39 42 33 29 30 32 35 28 25 21 20 18 12 10 16 10 8 9 13 3 13 4 12 16 16 16 17 16 19 21 25 27 30 33 35 38
39 42 40 38 32 31 29 27 29 29 22 18 16 18 17 16 16 18 19 13 3 6 14 12 8 17 18 18 16 17 17 19 21 22 25 27 29 30
32 33 33 31 30 29 30 26 23 24 24 22 23 22 22 23 22 18 15 11 6 3 13 17 8 11 9 5 10 12 13 14 17 18 20 20 21 22
26 28 31 29 29 28 27 27 23 20 22 22 22 24 25 25 25 19 14 9 6 4 11 17 9 9 5 8 14 19 18 15 15 14 15 17 19 17
27 24 26 26 26 27 27 25 23 24 25 25 25 27 27 26 22 19 16 9 6 9 14 12 6 10 10 9 9 12 17 18 14 11 11 10 11 12
26 24 26 28 28 28 26 28 30 30 29 26 25 25 23 22 21 20 16 15 6 6 11 13 13 15 13 11 12 12 15 9 14 9 8 7 6 5
29 30 30 30 31 31 32 31 29 29 27 23 21 23 23 23 23 24 23 20 15 16 14 13 13 15 11 12 13 13 13 7 10 7 5 4 4 4
25 30 35 34 31 32 31 31 30 30 30 27 25 25 24 24 23 22 22 19 15 17 21 20 16 12 12 12 10 11 11 9 7 5 3 2 5 5
30 34 31 29 23 20 22 22 24 26 25 24 24 23 23 23 22 22 22 22 17 17 17 20 19 16 6 5 6 10 8 7 5 3 2 2 5 4
27 25 25 25 21 19 20 18 19 23 21 21 17 16 16 16 18 16 17 16 17 17 17 17 14 11 4 3 4 10 11 7 4 2 2 1 1 4
25 24 22 21 21 20 21 23 23 24 24 24 22 20 18 14 15 14 15 17 16 15 16 16 12 10 5 4 4 5 11 6 3 1 3 10 12 9
23 22 22 21 20 19 19 21 23 25 27 29 28 25 21 18 19 17 16 20 18 14 16 17 19 15 13 10 4 2 6 12 3 3 7 5 4 4
19 18 16 17 18 20 21 23 25 25 27 29 29 26 24 20 17 18 17 17 17 16 17 22 22 14 7 5 5 3 1 5 9 8 7 3 1 2
20 19 17 16 15 15 15 16 17 18 20 24 26 25 24 22 20 18 17 16 17 19 18 19 20 11 6 3 1 0 2 3 4 12 16 13 6 5
Wind_Direction
262 218 219 208 205 207 209 204 188 181 221 221 218 230 232 235 241 244 249 254 253 250 245 244 242 243 243 244 244 242 242 242 239 239 242 241 239 239
238 264 221 222 209 206 207 207 204 210 220 220 224 233 244 245 241 243 248 256 259 256 251 248 246 245 245 245 243 243 245 247 246 245 242 243 244 245
166 245 267 240 210 204 204 205 207 210 228 243 230 230 235 233 232 234 245 259 260 256 246 244 248 250 249 247 245 242 242 245 247 248 249 247 246 247
90 93 25 20 169 199 200 202 203 210 209 234 226 218 224 228 232 233 263 265 257 255 244 239 250 259 259 252 245 245 245 246 247 249 251 252 252 248
72 78 53 45 26 29 84 148 196 216 219 227 233 222 222 224 229 253 261 258 252 255 257 257 260 261 263 264 251 246 247 249 251 253 254 255 256 255
77 74 65 54 45 26 47 40 15 157 166 338 239 228 227 241 246 262 255 256 261 262 263 271 275 271 270 266 260 246 247 249 250 255 257 259 259 260
68 69 69 66 63 54 53 46 43 19 87 64 40 21 8 43 20 341 318 315 270 274 269 277 285 280 275 279 265 254 251 251 248 253 261 260 262 263
68 61 67 69 62 63 60 61 58 43 34 74 64 56 21 13 357 345 19 5 324 359 354 303 283 282 284 284 287 267 258 254 252 255 262 264 264 266
53 58 54 59 54 57 54 54 60 54 54 47 62 55 28 10 332 358 19 10 288 313 330 303 291 293 286 278 267 258 248 251 257 257 261 261 262 264
49 52 53 49 45 52 52 48 52 51 46 50 47 62 59 14 9 360 352 341 333 312 12 299 324 315 305 300 292 275 268 267 268 270 272 272 270 270
46 48 49 47 40 44 51 44 43 42 45 45 43 45 41 28 25 18 16 18 345 11 4 358 325 327 316 305 296 293 295 290 292 291 287 283 281 281
45 44 44 47 44 41 47 44 42 30 31 33 39 38 37 32 30 29 16 13 358 327 2 355 327 352 324 327 341 337 331 320 315 313 311 309 302 297
41 37 38 38 41 41 43 41 39 41 39 36 32 30 28 27 26 21 11 357 355 319 340 353 323 339 296 309 320 314 319 322 312 308 310 314 314 311
40 38 41 41 43 41 37 36 39 38 35 30 27 23 18 18 16 19 21 1 341 336 343 353 302 314 305 297 267 305 316 317 306 306 309 311 316 322
39 38 38 39 43 43 35 36 34 33 28 21 14 12 13 6 10 5 12 11 3 354 354 3 360 331 312 266 296 305 327 311 313 308 310 309 310 309
38 40 41 39 39 34 31 31 30 29 26 18 7 7 7 7 8 9 3 1 1 351 358 356 330 342 339 329 311 305 303 298 321 312 319 332 347 337
42 40 38 34 31 29 27 25 20 17 15 10 5 1 2 2 1 6 5 4 355 347 342 342 347 327 292 328 334 328 321 302 294 302 307 8 30 33
35 33 33 33 31 25 21 18 19 13 9 1 359 356 353 353 349 356 3 359 348 340 338 342 345 350 337 257 347 348 322 304 292 293 201 127 60 54
34 33 32 29 26 24 20 16 10 10 7 3 353 351 348 344 349 345 349 353 346 342 338 341 344 344 329 297 307 17 347 309 287 294 267 328 89 93
20 19 17 18 19 18 17 15 12 9 9 6 3 357 355 347 344 343 343 341 338 337 334 338 342 341 316 308 313 352 41 338 278 211 117 117 114 112
1 1 1 2 5 7 9 10 5 4 3 2 1 359 355 352 348 346 339 343 343 337 332 330 327 323 294 297 280 293 41 60 60 153 138 109 86 84
339 338 340 346 350 353 354 356 358 359 359 357 355 354 352 348 341 338 334 333 334 330 323 324 333 329 286 276 277 269 317 61 93 125 112 88 161 151
315 319 317 323 331 335 338 339 348 352 352 352 351 349 349 346 342 336 332 330 333 334 336 330 331 330 330 317 279 32 78 36 62 74 75 68 87 123